Weather History for Daggett-Barstow, CA

Change the Weather History Date:

Tuesday, October 22, 2013

  Actual Average Record
Temperature  
Mean Temperature 67 °F -  
Max Temperature 84 °F 79 °F 96 °F (2003)
Min Temperature 50 °F 52 °F 33 °F (1996)
Cooling Degree Days 2    
Growing Degree Days 17 (Base 50)    
Moisture  
Dew Point 20 °F    
Average Humidity 18    
Maximum Humidity 27    
Minimum Humidity 11    
Precipitation  
Precipitation 0.00 in - - ()
Sea Level Pressure  
Sea Level Pressure 29.97 in    
Wind  
Wind Speed 5 mph (North)    
Max Wind Speed 9 mph    
Max Gust Speed -    
Visibility 10 miles    
Events      
Averages and records for this station are not official NWS values.
T = Trace of Precipitation, MM = Missing Value Source: NWS Daily Summary

Daily Weather History Graph

Daily Weather History Graph

Search for Another Location

Airport:

Trip Planner

Search our weather history database for the weather conditions in past years. The results will help you decide how hot, cold, wet, or windy it might be!

Date:

Astronomy

Oct. 22, 2013 Rise Set
Actual Time 6:59 AM PDT 6:03 PM PDT
Civil Twilight 6:33 AM PDT 6:29 PM PDT
Nautical Twilight 6:03 AM PDT 6:58 PM PDT
Astronomical Twilight 5:34 AM PDT 7:27 PM PDT
Moon 8:53 PM PDT (10/22) 10:25 AM PDT (10/22)
Length of Visible Light 11h 55m
Length of Day
11h 04m
Waning Gibbous, 86% of the Moon is Illuminated
Oct 22
Waning Gibbous
Oct 26
Last Quarter
Nov 3
New
Nov 9
First Quarter
Nov 17
Full

Hourly Weather History & Observations

Time (PDT) Temp. Dew Point Humidity Pressure Visibility Wind Dir Wind Speed Gust Speed Precip Events Conditions
12:50 AM 55.9 °F 17.1 °F 22% 29.99 in 10.0 mi NW 3.5 mph - N/A   Clear
1:50 AM 52.0 °F 18.0 °F 26% 29.99 in 10.0 mi West 5.8 mph - N/A   Clear
2:50 AM 53.1 °F 16.0 °F 23% 29.98 in 10.0 mi West 6.9 mph - N/A   Clear
3:50 AM 53.1 °F 16.0 °F 23% 29.98 in 10.0 mi Calm Calm - N/A   Clear
4:50 AM 51.1 °F 17.1 °F 26% 29.99 in 10.0 mi West 6.9 mph - N/A   Clear
5:50 AM 51.1 °F 17.1 °F 26% 30.00 in 10.0 mi West 5.8 mph - N/A   Clear
6:50 AM 50.0 °F 17.1 °F 27% 30.02 in 10.0 mi Calm Calm - N/A   Clear
7:50 AM 54.0 °F 18.0 °F 24% 30.03 in 10.0 mi West 6.9 mph - N/A   Clear
8:50 AM 61.0 °F 18.0 °F 19% 30.04 in 10.0 mi West 5.8 mph - N/A   Clear
9:50 AM 68.0 °F 19.0 °F 15% 30.04 in 10.0 mi Calm Calm - N/A   Clear
10:50 AM 73.9 °F 23.0 °F 15% 30.03 in 10.0 mi ENE 3.5 mph - N/A   Clear
11:50 AM 78.1 °F 24.1 °F 14% 30.01 in 10.0 mi NE 8.1 mph - N/A   Clear
12:50 PM 82.0 °F 25.0 °F 12% 29.98 in 10.0 mi NE 9.2 mph - N/A   Clear
1:50 PM 82.9 °F 24.1 °F 12% 29.95 in 10.0 mi NE 9.2 mph - N/A   Clear
2:50 PM 84.0 °F 25.0 °F 12% 29.93 in 10.0 mi NE 9.2 mph - N/A   Clear
3:50 PM 84.0 °F 23.0 °F 11% 29.92 in 10.0 mi East 6.9 mph - N/A   Clear
4:50 PM 82.9 °F 27.0 °F 13% 29.91 in 10.0 mi ENE 6.9 mph - N/A   Clear
5:50 PM 79.0 °F 26.1 °F 14% 29.90 in 10.0 mi NE 8.1 mph - N/A   Clear
6:50 PM 73.0 °F 23.0 °F 15% 29.91 in 10.0 mi ESE 3.5 mph - N/A   Clear
7:50 PM 69.1 °F 21.0 °F 16% 29.92 in 10.0 mi NW 3.5 mph - N/A   Clear
8:50 PM 64.9 °F 18.0 °F 16% 29.93 in 10.0 mi Calm Calm - N/A   Clear
9:50 PM 63.0 °F 18.0 °F 18% 29.93 in 10.0 mi Calm Calm - N/A   Clear
10:50 PM 63.0 °F 18.0 °F 18% 29.93 in 10.0 mi Calm Calm - N/A   Clear
11:50 PM 59.0 °F 18.0 °F 20% 29.91 in 10.0 mi Calm Calm - N/A   Clear